Regional Weather Roundup
Issued by NWS Upton, NY

Current Version | Previous Version | Text Only | Print | Product List | Glossary On
Versions: 1 2 3 4 5 6 7 8 9 10 11 12 13 14 15 16 17 18 19 20 21 22 23 24 25 26 27 28 29 30 31 32 33 34 35 36 37 38 39 40 41 42 43 44 45 46 47 48 49 50
000 ASUS41 KOKX 231809 RWROKX REGIONAL WEATHER ROUNDUP NATIONAL WEATHER SERVICE NEW YORK NY 200 PM EDT TUE MAY 23 2017 NOTE: "FAIR" INDICATES FEW OR NO CLOUDS BELOW 12,000 FEET WITH NO SIGNIFICANT WEATHER AND/OR OBSTRUCTIONS TO VISIBILITY. NYZ071-072-176-178-NJZ106-104-231900- NEW YORK CITY METRO AREA CITY SKY/WX TMP DP RH WIND PRES REMARKS Central Park CLOUDY 66 50 56 VRB3 29.93F Wall St Helipt CLOUDY 68 48 49 VRB7 29.92F Bronx Bot Gard N/A 68 46 45 SE2 29.90F LaGuardia APRT CLOUDY 68 47 46 NW7 29.90F Kennedy INTL CLOUDY 68 49 50 N7 29.92F Breezy Point N/A 61 N/A N/A S6 N/A Newark/Liberty CLOUDY 68 46 45 NE9 29.90F Teterboro CLOUDY 68 46 45 VRB5 29.89F $$ NYZ177-179-078>081-231900- LONG ISLAND NEW YORK CITY SKY/WX TMP DP RH WIND PRES REMARKS Jones Beach N/A 64 N/A N/A NE1 N/A Matinecock PT N/A 61 N/A N/A SW5 N/A Farmingdale CLOUDY 67 48 50 CALM 29.91F MacArthur/ISP CLOUDY 68 48 48 VRB6 29.90F Shirley CLOUDY 67 51 56 N8 29.90F Mt Sinai Harb N/A 66 N/A N/A MISG N/A Westhampton CLOUDY 67 46 47 N9 29.91F East Hampton N/A 66 49 54 N5 29.88F Montauk N/A 65 53 65 W3 29.89S $$ NYZ052-065-067-231900- HUDSON VALLEY CITY SKY/WX TMP DP RH WIND PRES REMARKS White Plains CLOUDY 67 48 50 NW6 29.89F Larchmont Harb N/A 61 N/A N/A SE9 N/A Croton O-T Hud N/A 64 N/A N/A W8 N/A Newburgh PTSUNNY 64 54 68 VRB6 29.92F Montgomery CLOUDY 66 47 50 NE3 29.90F Poughkeepsie CLOUDY 66 49 54 N6 29.89F Albany PTSUNNY 69 46 43 CALM 29.89F $$ NJZ001-105-106-008-010-013-015-019>022-104-231900- NEW JERSEY CITY SKY/WX TMP DP RH WIND PRES REMARKS Newark/Liberty CLOUDY 68 46 45 NE9 29.90F Teterboro CLOUDY 68 46 45 VRB5 29.89F Caldwell CLOUDY 69 49 48 CALM 29.91F Somerville CLOUDY 67 54 63 S5 29.90F Linden N/A 68 45 42 NE3 29.91F Perth Amboy N/A 63 N/A N/A SE7 N/A Sussex CLOUDY 66 47 50 E5 29.92F Andover N/A 66 48 52 N3 29.91F Trenton CLOUDY 64 52 64 E3 29.92F Millville CLOUDY 66 60 81 E5 29.91F Atlantic City PTSUNNY 67 49 52 NE8 29.92F Wrightstown NOT AVBL Toms River PTSUNNY 66 49 54 NE8 29.93F Belmar CLOUDY 65 46 50 N9 29.92F $$ PAZ047>061-062-071-231900- EASTERN PENNSYLVANIA CITY SKY/WX TMP DP RH WIND PRES REMARKS Philadelphia CLOUDY 66 51 58 E7 29.92F Allentown CLOUDY 67 48 50 NE5 29.92F Scranton CLOUDY 65 48 54 NW3 29.90F $$ CTZ002-004>006-009-010-012-RIZ004-006-007-MAZ004-011-015-231900- SOUTHERN NEW ENGLAND IN CT CITY SKY/WX TMP DP RH WIND PRES REMARKS Bradley INTL CLOUDY 68 48 48 NE7 29.88F Hartford CLOUDY 67 48 50 N5 29.88F Danbury CLOUDY 66 48 52 VRB3 29.91F Wtrbury/Oxford CLOUDY 64 45 48 NE5 29.90F Bridgeport CLOUDY 65 51 60 SW9 29.89F Meriden CLOUDY 68 50 52 NE6 29.88F New Haven CLOUDY 63 52 67 S8 29.88F Chester N/A 68 48 49 N6G12 29.89F Groton CLOUDY 70 50 49 N5 29.86F Wilimantic CLOUDY 71 48 43 NW3 29.87F IN RI CITY SKY/WX TMP DP RH WIND PRES REMARKS Providence CLOUDY 72 47 40 NE6 29.86F Block Island CLOUDY 65 52 62 NE8 29.88S Westerly PTSUNNY 70 51 51 VRB3 29.87F IN MA CITY SKY/WX TMP DP RH WIND PRES REMARKS Boston CLOUDY 62 53 72 E8 29.87F Worcester MOSUNNY 66 43 43 NW8 29.88F Westfield CLOUDY 67 50 54 VRB3 29.88F Provincetown CLOUDY 54 51 90 NE8 29.87F Nantucket MOSUNNY 61 53 75 N16 29.84F $$ ANZ330-335-338-340-345-350-353-355-231900- COASTAL MARINE OBSERVATIONS STATION/POSITION TIME SKY/WX TEMP WIND PRES VSBY WAVE AIR SEA DIR/SP/G HT/PER (UTC) (F) (DEG/KT/KT) (MB) (MI) (FT/S) NY HARB ENTRANCE 1650 60 59 340/ 2/ 2 1013.4 3/ 7 20 S FIRE ISLAND 1650 57 55 310/ 2/ 4 1012.9 3/ 7 GREAT SOUTH BAY 1700 64 64 20/ 4/ 10 N/A 23 SSW MONTAUK P 1650 56 55 1012.3 3/ 7 15 E BARNEGAT LI 1700 57 N/A 4/ 7 HUDSON CANYON 1650 55 54 10/ 6/ 6 1013.0 4/ 7 KINGS POINT 1736 63 58 300/ 1/ 2 1012.7 EXECUTION ROCKS 1745 62 N/A CENTRAL LI SOUND 1715 60 270/ 4/ 4 N/A 0 EASTERN LI SOUND NOT AVBL ROBBINS REEF 1736 65 40/ 5/ 6 1013.4 $$ >>>>>>>>>>>>>>>>>>>>>>>>>>>> KEY <<<<<<<<<<<<<<<<<<<<<<<<<<< > < > SKY/WX - Sky Condition/Present Weather < > TMP - Temperature in Fahrenheit < > DP - Dew Point in Fahrenheit < > RH - Relative Humidity in Percent < > WIND - Direction (from) and Speed in MPH < > PRES - Mean Sea Level Pressure (inches of Hg) < > WCI - Wind Chill Index < > VSB - VISIBILITY IN MILES < > HX - HEAT INDEX < > TC - TEMPERATURE IN CELSIUS < > VRB - VARIABLE WIND DIRECTION < > < >>>>>>>>>>>>>>>>>>>>>>>>>>>> KEY <<<<<<<<<<<<<<<<<<<<<<<<<<<

USA.gov is the U.S. government's official web portal to all federal, state and local government web resources and services.